DAL4178 KATL-KJFK

Flight info

Callsign DAL4178
Flight time N/A
Altitude 41000
Route PHIIL3 HRTWL Q64 SAWED Q108 SIE CAMRN5
Aircraft A339/H-SADE1E2E3GHIJ3J5M1P2RWXY/LB2D1

Departure

Time 2026-05-04 21:22
Airport Hartsfield Jackson Atlanta International Airport (KATL)

Arrival

Time N/A
Airport John F. Kennedy International Airport (KJFK)
Time Latitude Longitude Altitude Speed Heading
2026-05-04 21:04 33.64015 -84.43788 1041 ft 0 kts 180°
2026-05-04 21:09 33.64016 -84.43788 1041 ft 0 kts 180°
2026-05-04 21:10 33.64019 -84.43788 1041 ft 1 kts 180°
2026-05-04 21:11 33.64020 -84.43788 1041 ft 2 kts 180°
2026-05-04 21:12 33.64027 -84.43788 1041 ft 0 kts 180°
2026-05-04 21:13 33.64014 -84.43788 1041 ft 8 kts 180°
2026-05-04 21:13 33.63899 -84.43791 1041 ft 21 kts 180°
2026-05-04 21:13 33.63765 -84.43789 1041 ft 0 kts 179°
2026-05-04 21:15 33.63764 -84.43789 1041 ft 1 kts 179°
2026-05-04 21:15 33.63726 -84.43789 1041 ft 14 kts 179°
2026-05-04 21:15 33.63663 -84.43673 1041 ft 23 kts 90°
2026-05-04 21:16 33.63665 -84.43470 1041 ft 25 kts 89°
2026-05-04 21:16 33.63664 -84.43254 1041 ft 26 kts 90°
2026-05-04 21:16 33.63665 -84.43046 1041 ft 25 kts 90°
2026-05-04 21:16 33.63663 -84.42834 1041 ft 26 kts 91°
2026-05-04 21:17 33.63655 -84.42615 1042 ft 26 kts 90°
2026-05-04 21:17 33.63656 -84.42391 1041 ft 24 kts 90°
2026-05-04 21:17 33.63649 -84.42204 1042 ft 23 kts 105°
2026-05-04 21:17 33.63584 -84.42030 1042 ft 23 kts 99°
2026-05-04 21:18 33.63582 -84.41830 1041 ft 25 kts 89°
2026-05-04 21:18 33.63583 -84.41619 1041 ft 26 kts 90°
2026-05-04 21:18 33.63582 -84.41416 1040 ft 23 kts 90°
2026-05-04 21:18 33.63581 -84.41239 1041 ft 20 kts 90°
2026-05-04 21:19 33.63582 -84.41068 1041 ft 20 kts 90°
2026-05-04 21:19 33.63574 -84.40943 1041 ft 0 kts 112°
2026-05-04 21:19 33.63549 -84.40921 1041 ft 13 kts 155°
2026-05-04 21:20 33.63475 -84.40974 1042 ft 14 kts 262°
2026-05-04 21:20 33.63472 -84.41027 1041 ft 0 kts 269°
2026-05-04 21:21 33.63471 -84.41060 1041 ft 25 kts 269°
2026-05-04 21:21 33.63468 -84.41698 1040 ft 124 kts 270°
2026-05-04 21:22 33.63472 -84.43045 1059 ft 192 kts 269°
2026-05-04 21:22 33.63548 -84.44744 1450 ft 215 kts 270°
2026-05-04 21:22 33.63502 -84.46562 2056 ft 220 kts 259°
2026-05-04 21:22 33.63109 -84.48314 3063 ft 217 kts 247°
2026-05-04 21:23 33.62424 -84.50005 3676 ft 236 kts 240°
2026-05-04 21:23 33.61626 -84.51813 4224 ft 254 kts 240°
2026-05-04 21:23 33.60799 -84.53730 4927 ft 261 kts 241°
2026-05-04 21:23 33.59978 -84.55677 5761 ft 265 kts 242°
2026-05-04 21:24 33.58884 -84.57435 6532 ft 267 kts 220°
2026-05-04 21:24 33.57236 -84.58434 7333 ft 267 kts 193°
2026-05-04 21:24 33.55374 -84.58566 8117 ft 271 kts 179°
2026-05-04 21:24 33.53493 -84.58514 8913 ft 275 kts 179°
2026-05-04 21:25 33.51543 -84.58459 9765 ft 278 kts 180°
2026-05-04 21:25 33.49626 -84.58378 10460 ft 284 kts 173°
2026-05-04 21:25 33.47734 -84.57543 11162 ft 292 kts 149°
2026-05-04 21:25 33.46295 -84.55829 11847 ft 303 kts 124°
2026-05-04 21:26 33.45527 -84.53438 12580 ft 311 kts 100°
2026-05-04 21:26 33.45431 -84.50799 13065 ft 326 kts 89°
2026-05-04 21:26 33.45505 -84.48112 13275 ft 346 kts 88°
2026-05-04 21:26 33.45595 -84.45074 13533 ft 365 kts 89°
2026-05-04 21:27 33.45642 -84.42000 13965 ft 376 kts 89°
2026-05-04 21:27 33.45654 -84.38798 14140 ft 394 kts 90°
2026-05-04 21:27 33.45679 -84.35439 14366 ft 412 kts 87°
2026-05-04 21:27 33.46070 -84.32021 14862 ft 418 kts 78°
2026-05-04 21:28 33.46865 -84.28659 15279 ft 423 kts 72°
2026-05-04 21:28 33.47748 -84.25268 15774 ft 427 kts 72°
2026-05-04 21:28 33.48624 -84.21848 16295 ft 430 kts 73°
2026-05-04 21:28 33.49497 -84.18399 16746 ft 436 kts 73°
2026-05-04 21:29 33.50377 -84.14908 17349 ft 437 kts 73°
2026-05-04 21:29 33.51254 -84.11420 18015 ft 438 kts 73°
2026-05-04 21:29 33.52132 -84.07923 18615 ft 438 kts 73°
2026-05-04 21:29 33.53006 -84.04438 19231 ft 438 kts 73°
2026-05-04 21:30 33.53891 -84.00904 19548 ft 447 kts 73°
2026-05-04 21:30 33.54796 -83.97288 19706 ft 460 kts 73°
2026-05-04 21:30 33.55720 -83.93599 20140 ft 464 kts 72°
2026-05-04 21:30 33.56651 -83.89896 20754 ft 463 kts 72°
2026-05-04 21:31 33.58591 -83.82402 21504 ft 475 kts 68°
2026-05-04 21:31 33.59945 -83.78735 22105 ft 474 kts 63°
2026-05-04 21:31 33.61334 -83.75119 22401 ft 482 kts 64°
2026-05-04 21:32 33.62715 -83.71493 22834 ft 486 kts 64°
2026-05-04 21:32 33.64115 -83.67797 23444 ft 486 kts 64°
2026-05-04 21:32 33.65427 -83.64066 23984 ft 487 kts 69°
2026-05-04 21:32 33.66349 -83.60161 24549 ft 486 kts 77°
2026-05-04 21:33 33.67055 -83.56209 25113 ft 486 kts 77°
2026-05-04 21:33 33.67793 -83.52206 25247 ft 496 kts 76°
2026-05-04 21:33 33.68557 -83.48135 25489 ft 502 kts 76°
2026-05-04 21:33 33.69325 -83.44043 25974 ft 503 kts 76°
2026-05-04 21:34 33.70092 -83.39944 26504 ft 502 kts 76°
2026-05-04 21:34 33.70852 -83.35866 27044 ft 501 kts 76°
2026-05-04 21:34 33.71613 -83.31769 27351 ft 506 kts 76°
2026-05-04 21:34 33.72385 -83.27609 27463 ft 514 kts 76°
2026-05-04 21:35 33.73166 -83.23390 27564 ft 521 kts 76°
2026-05-04 21:35 33.73961 -83.19131 27748 ft 524 kts 75°
2026-05-04 21:35 33.75071 -83.14947 27831 ft 525 kts 66°
2026-05-04 21:35 33.76607 -83.10980 27973 ft 524 kts 59°
2026-05-04 21:36 33.78489 -83.07257 28205 ft 521 kts 54°
2026-05-04 21:36 33.80424 -83.03557 28392 ft 521 kts 55°
2026-05-04 21:36 33.82334 -82.99868 28594 ft 521 kts 55°
2026-05-04 21:36 33.84247 -82.96160 28697 ft 523 kts 55°
2026-05-04 21:37 33.86170 -82.92430 28739 ft 524 kts 55°
2026-05-04 21:37 33.89988 -82.85015 28862 ft 526 kts 55°
2026-05-04 21:38 33.93833 -82.77526 29000 ft 525 kts 55°
2026-05-04 21:38 33.95752 -82.73782 29194 ft 523 kts 55°
2026-05-04 21:38 33.97635 -82.70099 30103 ft 508 kts 55°
2026-05-04 21:38 33.99457 -82.66530 31117 ft 495 kts 55°
2026-05-04 21:39 34.01255 -82.62987 31550 ft 497 kts 55°
2026-05-04 21:39 34.03062 -82.59415 31880 ft 501 kts 56°
2026-05-04 21:39 34.04873 -82.55822 32225 ft 502 kts 56°
2026-05-04 21:39 34.06694 -82.52211 32583 ft 503 kts 56°
2026-05-04 21:40 34.08541 -82.48551 32863 ft 506 kts 56°
2026-05-04 21:40 34.10343 -82.44973 33154 ft 507 kts 55°
2026-05-04 21:40 34.12183 -82.41329 33368 ft 509 kts 56°
2026-05-04 21:40 34.14015 -82.37667 33492 ft 511 kts 56°
2026-05-04 21:41 34.15863 -82.33987 33674 ft 513 kts 56°
2026-05-04 21:41 34.17703 -82.30304 33898 ft 512 kts 56°
2026-05-04 21:41 34.19540 -82.26641 34124 ft 511 kts 56°
2026-05-04 21:41 34.21385 -82.22965 34307 ft 512 kts 56°
2026-05-04 21:42 34.23231 -82.19280 34518 ft 512 kts 56°
2026-05-04 21:42 34.26929 -82.11896 34693 ft 513 kts 55°
2026-05-04 21:43 34.30642 -82.04532 34386 ft 512 kts 55°
2026-05-04 21:43 34.34344 -81.97180 34404 ft 513 kts 55°
2026-05-04 21:43 34.36195 -81.93491 34522 ft 513 kts 56°
2026-05-04 21:44 34.38044 -81.89803 34654 ft 513 kts 56°
2026-05-04 21:44 34.39893 -81.86108 34772 ft 513 kts 55°
2026-05-04 21:44 34.41744 -81.82406 34898 ft 513 kts 55°
2026-05-04 21:44 34.43586 -81.78717 35016 ft 513 kts 55°
2026-05-04 21:45 34.45437 -81.75007 35129 ft 513 kts 55°
2026-05-04 21:45 34.47284 -81.71297 35264 ft 515 kts 55°
2026-05-04 21:45 34.49131 -81.67586 35392 ft 516 kts 55°
2026-05-04 21:45 34.50985 -81.63861 35509 ft 515 kts 55°
2026-05-04 21:46 34.52807 -81.60194 35615 ft 515 kts 55°
2026-05-04 21:46 34.54651 -81.56476 35748 ft 515 kts 55°
2026-05-04 21:46 34.56497 -81.52756 35876 ft 515 kts 55°
2026-05-04 21:46 34.58340 -81.49039 35985 ft 514 kts 55°
2026-05-04 21:47 34.60186 -81.45311 36132 ft 514 kts 55°
2026-05-04 21:47 34.62024 -81.41593 36249 ft 514 kts 55°
2026-05-04 21:47 34.63859 -81.37878 36381 ft 514 kts 55°
2026-05-04 21:47 34.65694 -81.34157 36513 ft 514 kts 55°
2026-05-04 21:48 34.67533 -81.30422 36643 ft 513 kts 55°
2026-05-04 21:48 34.69357 -81.26715 36789 ft 511 kts 55°
2026-05-04 21:48 34.71174 -81.23021 36920 ft 509 kts 55°
2026-05-04 21:48 34.72996 -81.19313 37053 ft 510 kts 55°
2026-05-04 21:49 34.74816 -81.15607 37186 ft 510 kts 56°
2026-05-04 21:49 34.76629 -81.11910 37325 ft 510 kts 55°
2026-05-04 21:49 34.78447 -81.08199 37449 ft 510 kts 55°
2026-05-04 21:49 34.80158 -81.04431 37608 ft 512 kts 61°
2026-05-04 21:50 34.81613 -81.00465 37723 ft 514 kts 63°
2026-05-04 21:50 34.83068 -80.96491 37855 ft 513 kts 63°
2026-05-04 21:50 34.84528 -80.92540 38009 ft 513 kts 62°
2026-05-04 21:50 34.85995 -80.88576 38136 ft 513 kts 63°
2026-05-04 21:51 34.87454 -80.84621 38284 ft 513 kts 63°
2026-05-04 21:51 34.88916 -80.80648 38434 ft 513 kts 63°
2026-05-04 21:51 34.90374 -80.76680 38643 ft 513 kts 63°
2026-05-04 21:51 34.91827 -80.72715 38839 ft 512 kts 63°
2026-05-04 21:52 34.93281 -80.68749 38979 ft 513 kts 63°
2026-05-04 21:52 34.94734 -80.64782 39127 ft 513 kts 63°
2026-05-04 21:52 34.96185 -80.60812 39226 ft 513 kts 63°
2026-05-04 21:52 34.97635 -80.56845 39366 ft 514 kts 63°
2026-05-04 21:53 34.99103 -80.52906 39328 ft 507 kts 60°
2026-05-04 21:53 35.00624 -80.49033 39005 ft 504 kts 60°
2026-05-04 21:53 35.02102 -80.45220 38735 ft 502 kts 60°
2026-05-04 21:53 35.03545 -80.41352 38497 ft 501 kts 62°
2026-05-04 21:54 35.04916 -80.37421 38487 ft 507 kts 65°
2026-05-04 21:54 35.07610 -80.29389 38611 ft 514 kts 64°
2026-05-04 21:55 35.10460 -80.21382 38818 ft 514 kts 64°
2026-05-04 21:55 35.11899 -80.17390 38961 ft 514 kts 64°
2026-05-04 21:55 35.13340 -80.13390 39041 ft 515 kts 64°
2026-05-04 21:55 35.14781 -80.09382 39159 ft 516 kts 64°
2026-05-04 21:56 35.16219 -80.05375 39312 ft 516 kts 64°
2026-05-04 21:56 35.17661 -80.01358 39453 ft 516 kts 64°
2026-05-04 21:56 35.18636 -79.98639 39535 ft 516 kts 64°
2026-05-04 21:56 35.20072 -79.94635 39667 ft 516 kts 64°
2026-05-04 21:57 35.21498 -79.90660 39783 ft 516 kts 64°
2026-05-04 21:57 35.22959 -79.86587 39899 ft 517 kts 64°
2026-05-04 21:57 35.24399 -79.82567 40032 ft 517 kts 64°
2026-05-04 21:57 35.25839 -79.78542 40138 ft 517 kts 64°
2026-05-04 21:58 35.27285 -79.74495 40200 ft 519 kts 64°
2026-05-04 21:58 35.28730 -79.70443 40308 ft 519 kts 64°
2026-05-04 21:58 35.30169 -79.66399 40454 ft 519 kts 64°
2026-05-04 21:58 35.31612 -79.62336 40607 ft 519 kts 64°
2026-05-04 21:59 35.33050 -79.58284 40755 ft 519 kts 64°
2026-05-04 21:59 35.34483 -79.54239 40872 ft 519 kts 64°
2026-05-04 21:59 35.35923 -79.50172 40985 ft 519 kts 64°
2026-05-04 22:00 35.38790 -79.42058 41016 ft 519 kts 64°
2026-05-04 22:00 35.41661 -79.33912 41023 ft 521 kts 64°
2026-05-04 22:01 35.44525 -79.25760 41019 ft 520 kts 64°
2026-05-04 22:01 35.47384 -79.17604 41015 ft 521 kts 64°
2026-05-04 22:02 35.50237 -79.09440 41007 ft 520 kts 64°
2026-05-04 22:02 35.53084 -79.01274 41007 ft 520 kts 64°
2026-05-04 22:03 35.55908 -78.93151 41006 ft 521 kts 64°
2026-05-04 22:03 35.58748 -78.84962 41005 ft 521 kts 64°
2026-05-04 22:04 35.61579 -78.76778 41011 ft 521 kts 64°
2026-05-04 22:04 35.64401 -78.68585 41010 ft 521 kts 64°
2026-05-04 22:05 35.67222 -78.60375 41014 ft 521 kts 65°
2026-05-04 22:05 35.70039 -78.52154 41020 ft 522 kts 65°
2026-05-04 22:06 35.72854 -78.43918 41012 ft 522 kts 65°
2026-05-04 22:06 35.75662 -78.35681 41012 ft 522 kts 65°
2026-05-04 22:07 35.78472 -78.27426 41015 ft 522 kts 65°
2026-05-04 22:07 35.81269 -78.19186 41014 ft 522 kts 65°
2026-05-04 22:08 35.84065 -78.10924 41009 ft 522 kts 65°
2026-05-04 22:08 35.86852 -78.02666 41017 ft 522 kts 65°
2026-05-04 22:09 35.89637 -77.94392 41033 ft 522 kts 65°
2026-05-04 22:09 35.92418 -77.86108 41020 ft 523 kts 65°
2026-05-04 22:10 35.95197 -77.77821 41010 ft 522 kts 64°
2026-05-04 22:10 35.98642 -77.70008 41008 ft 517 kts 52°
2026-05-04 22:11 36.03093 -77.63109 41007 ft 511 kts 42°
2026-05-04 22:11 36.07930 -77.56670 40998 ft 511 kts 43°
2026-05-04 22:12 36.12747 -77.50183 41019 ft 512 kts 43°
2026-05-04 22:12 36.17560 -77.43695 41011 ft 511 kts 43°
2026-05-04 22:13 36.22368 -77.37208 41012 ft 511 kts 43°
2026-05-04 22:13 36.27138 -77.30760 41009 ft 511 kts 43°
2026-05-04 22:14 36.32019 -77.24296 41022 ft 508 kts 38°
2026-05-04 22:14 36.37224 -77.18497 41007 ft 508 kts 37°
2026-05-04 22:15 36.42501 -77.12590 41008 ft 513 kts 37°
2026-05-04 22:15 36.47814 -77.06627 41007 ft 515 kts 37°
2026-05-04 22:16 36.53136 -77.00647 41029 ft 517 kts 37°
2026-05-04 22:16 36.58482 -76.94629 40990 ft 518 kts 37°
2026-05-04 22:17 36.63829 -76.88597 40990 ft 519 kts 37°
2026-05-04 22:17 36.69137 -76.82599 40998 ft 519 kts 37°
2026-05-04 22:18 36.74482 -76.76548 41018 ft 520 kts 37°
2026-05-04 22:18 36.79837 -76.70473 40966 ft 520 kts 37°
2026-05-04 22:19 36.85190 -76.64387 40957 ft 520 kts 37°
2026-05-04 22:19 36.90541 -76.58292 40956 ft 520 kts 37°
2026-05-04 22:20 36.95886 -76.52193 40963 ft 520 kts 38°
2026-05-04 22:20 37.01229 -76.46082 40925 ft 521 kts 38°
2026-05-04 22:21 37.06539 -76.39997 40922 ft 521 kts 38°
2026-05-04 22:21 37.11919 -76.33821 40925 ft 521 kts 38°
2026-05-04 22:22 37.17259 -76.27680 40935 ft 522 kts 38°
2026-05-04 22:22 37.22597 -76.21526 40935 ft 521 kts 38°
2026-05-04 22:23 37.27902 -76.15398 40945 ft 521 kts 38°
2026-05-04 22:23 37.33230 -76.09230 40940 ft 521 kts 38°
2026-05-04 22:24 37.38598 -76.03008 40980 ft 520 kts 39°
2026-05-04 22:24 37.43878 -75.96871 40982 ft 519 kts 39°
2026-05-04 22:25 37.49175 -75.90703 40988 ft 519 kts 39°
2026-05-04 22:25 37.54703 -75.84933 40989 ft 513 kts 30°
2026-05-04 22:26 37.60770 -75.80298 40991 ft 510 kts 26°
2026-05-04 22:26 37.66880 -75.75705 40949 ft 511 kts 26°
2026-05-04 22:27 37.72986 -75.71108 40943 ft 511 kts 26°
2026-05-04 22:27 37.79096 -75.66509 40972 ft 511 kts 26°
2026-05-04 22:28 37.85173 -75.61834 40966 ft 513 kts 30°
2026-05-04 22:28 37.91047 -75.56693 40966 ft 513 kts 30°
2026-05-04 22:29 37.96923 -75.51588 40965 ft 512 kts 30°
2026-05-04 22:29 38.02797 -75.46468 40990 ft 511 kts 30°
2026-05-04 22:30 38.08670 -75.41428 40983 ft 509 kts 28°
2026-05-04 22:30 38.14648 -75.36618 40983 ft 509 kts 27°
2026-05-04 22:31 38.20649 -75.31850 41013 ft 506 kts 24°
2026-05-04 22:31 38.27028 -75.28298 40998 ft 497 kts 12°
2026-05-04 22:32 38.33701 -75.26344 40974 ft 489 kts
2026-05-04 22:32 38.40427 -75.24940 40963 ft 489 kts
2026-05-04 22:33 38.47137 -75.23510 40968 ft 489 kts
2026-05-04 22:33 38.53843 -75.22094 40958 ft 488 kts
2026-05-04 22:34 38.60545 -75.20687 40951 ft 488 kts
2026-05-04 22:34 38.67201 -75.18889 40926 ft 494 kts 13°
2026-05-04 22:35 38.73513 -75.15223 40919 ft 504 kts 26°
2026-05-04 22:35 38.79209 -75.09919 40924 ft 508 kts 33°
2026-05-04 22:36 38.84822 -75.04426 40958 ft 507 kts 33°
2026-05-04 22:36 38.90432 -74.98926 40928 ft 507 kts 33°
2026-05-04 22:36 38.93226 -74.96176 40796 ft 503 kts 33°
2026-05-04 22:37 38.95985 -74.93456 40230 ft 502 kts 33°
2026-05-04 22:37 38.98250 -74.91221 39976 ft 494 kts 33°
2026-05-04 22:37 39.00935 -74.88570 39840 ft 481 kts 33°
2026-05-04 22:37 39.03558 -74.85973 39746 ft 469 kts 33°
2026-05-04 22:38 39.06119 -74.83435 39657 ft 458 kts 33°
2026-05-04 22:38 39.08603 -74.80967 39563 ft 447 kts 33°
2026-05-04 22:38 39.11029 -74.78539 39467 ft 436 kts 34°
2026-05-04 22:38 39.13350 -74.76065 39223 ft 431 kts 36°
2026-05-04 22:39 39.15632 -74.73566 38884 ft 428 kts 36°
2026-05-04 22:39 39.17883 -74.71094 38594 ft 424 kts 36°
2026-05-04 22:39 39.20114 -74.68656 38185 ft 418 kts 36°
2026-05-04 22:39 39.21581 -74.67060 37867 ft 414 kts 35°
2026-05-04 22:40 39.23772 -74.64682 37495 ft 409 kts 36°
2026-05-04 22:40 39.25931 -74.62341 37227 ft 401 kts 36°
2026-05-04 22:40 39.28056 -74.60035 36806 ft 397 kts 35°
2026-05-04 22:40 39.30155 -74.57760 36418 ft 392 kts 35°
2026-05-04 22:41 39.32228 -74.55510 36040 ft 387 kts 36°
2026-05-04 22:41 39.34281 -74.53283 35648 ft 382 kts 35°
2026-05-04 22:41 39.36306 -74.51081 35302 ft 378 kts 35°
2026-05-04 22:41 39.38302 -74.48906 34996 ft 374 kts 35°
2026-05-04 22:42 39.40287 -74.46744 34607 ft 372 kts 35°
2026-05-04 22:42 39.42245 -74.44597 34303 ft 367 kts 37°
2026-05-04 22:42 39.43856 -74.42041 34083 ft 370 kts 57°
2026-05-04 22:42 39.44754 -74.38912 33830 ft 377 kts 76°
2026-05-04 22:43 39.44834 -74.35545 33572 ft 384 kts 96°
2026-05-04 22:43 39.44051 -74.32192 33298 ft 389 kts 116°
2026-05-04 22:43 39.42489 -74.29338 33024 ft 389 kts 136°
2026-05-04 22:43 39.40365 -74.27301 32763 ft 384 kts 155°
2026-05-04 22:44 39.37889 -74.26154 32485 ft 374 kts 173°
2026-05-04 22:44 39.35341 -74.25962 32230 ft 362 kts 191°
2026-05-04 22:44 39.32931 -74.26683 31963 ft 352 kts 207°
2026-05-04 22:44 39.30832 -74.28198 31705 ft 342 kts 224°
2026-05-04 22:45 39.29039 -74.30179 31461 ft 339 kts 226°
2026-05-04 22:45 39.25463 -74.34107 30954 ft 336 kts 225°
2026-05-04 22:45 39.23677 -74.36032 30682 ft 333 kts 225°
2026-05-04 22:46 39.21903 -74.37942 30435 ft 332 kts 225°
2026-05-04 22:46 39.20123 -74.39857 29902 ft 335 kts 225°
2026-05-04 22:46 39.18337 -74.41816 29046 ft 339 kts 229°
2026-05-04 22:46 39.16852 -74.44175 28235 ft 339 kts 243°
2026-05-04 22:47 39.15916 -74.46946 27445 ft 338 kts 258°
2026-05-04 22:47 39.15611 -74.49940 26664 ft 338 kts 273°
2026-05-04 22:47 39.15955 -74.52927 25895 ft 339 kts 288°
2026-05-04 22:47 39.16922 -74.55691 25155 ft 341 kts 302°
2026-05-04 22:48 39.18460 -74.58038 24416 ft 345 kts 317°
2026-05-04 22:48 39.20464 -74.59765 23721 ft 350 kts 332°
2026-05-04 22:48 39.22800 -74.60719 22946 ft 357 kts 347°
2026-05-04 22:48 39.25305 -74.60775 22147 ft 365 kts
2026-05-04 22:49 39.27740 -74.59835 21739 ft 365 kts 21°
2026-05-04 22:49 39.29839 -74.58062 21570 ft 356 kts 36°
2026-05-04 22:49 39.31677 -74.56021 21424 ft 341 kts 36°
2026-05-04 22:49 39.33425 -74.54091 21230 ft 321 kts 35°
2026-05-04 22:50 39.35084 -74.52279 21032 ft 307 kts 34°
2026-05-04 22:50 39.36783 -74.50456 20789 ft 332 kts 34°
2026-05-04 22:50 39.38595 -74.48521 20548 ft 338 kts 34°
2026-05-04 22:50 39.40390 -74.46582 20297 ft 335 kts 35°
2026-05-04 22:51 39.42170 -74.44651 20041 ft 333 kts 35°
2026-05-04 22:51 39.43940 -74.42724 19812 ft 334 kts 35°
2026-05-04 22:51 39.45714 -74.40787 19577 ft 333 kts 35°
2026-05-04 22:51 39.47485 -74.38852 19328 ft 332 kts 35°
2026-05-04 22:52 39.49249 -74.36925 19081 ft 331 kts 35°
2026-05-04 22:52 39.51007 -74.35000 18847 ft 330 kts 35°
2026-05-04 22:52 39.52754 -74.33086 18611 ft 329 kts 35°
2026-05-04 22:52 39.54496 -74.31176 18369 ft 328 kts 35°
2026-05-04 22:53 39.56239 -74.29269 18123 ft 327 kts 35°
2026-05-04 22:53 39.57977 -74.27370 18044 ft 326 kts 35°
2026-05-04 22:53 39.59713 -74.25476 17992 ft 327 kts 35°
2026-05-04 22:53 39.61437 -74.23585 17898 ft 320 kts 35°
2026-05-04 22:54 39.63110 -74.21740 17636 ft 313 kts 35°
2026-05-04 22:54 39.64739 -74.19945 17438 ft 300 kts 34°
2026-05-04 22:54 39.66291 -74.18237 17279 ft 285 kts 34°
2026-05-04 22:54 39.67761 -74.16617 17088 ft 272 kts 34°
2026-05-04 22:55 39.69194 -74.15043 16698 ft 268 kts 34°
2026-05-04 22:55 39.70620 -74.13485 16441 ft 270 kts 33°
2026-05-04 22:55 39.72061 -74.11908 16188 ft 271 kts 34°
2026-05-04 22:55 39.73590 -74.10241 15985 ft 306 kts 34°
2026-05-04 22:56 39.75301 -74.08376 15811 ft 331 kts 35°
2026-05-04 22:56 39.77056 -74.06433 15631 ft 331 kts 36°
2026-05-04 22:56 39.78795 -74.04490 15457 ft 328 kts 36°
2026-05-04 22:56 39.80536 -74.02550 15284 ft 332 kts 35°
2026-05-04 22:57 39.82290 -74.00606 15086 ft 330 kts 35°
2026-05-04 22:57 39.84055 -73.98724 14898 ft 325 kts 30°
2026-05-04 22:57 39.85984 -73.97227 14721 ft 321 kts 22°
2026-05-04 22:57 39.87957 -73.95868 14538 ft 321 kts 22°
2026-05-04 22:58 39.89922 -73.94489 14370 ft 320 kts 23°
2026-05-04 22:58 39.91868 -73.93113 13969 ft 318 kts 23°
2026-05-04 22:58 39.93812 -73.91737 13472 ft 317 kts 23°
2026-05-04 22:58 39.95735 -73.90373 12830 ft 312 kts 23°
2026-05-04 22:59 39.97621 -73.89033 12200 ft 307 kts 23°
2026-05-04 22:59 39.99486 -73.87710 11636 ft 304 kts 23°
2026-05-04 22:59 40.01300 -73.86475 11471 ft 282 kts 18°
2026-05-04 22:59 40.02992 -73.85415 11315 ft 269 kts 25°
2026-05-04 23:00 40.04649 -73.84028 11183 ft 294 kts 27°
2026-05-04 23:00 40.06364 -73.82582 11026 ft 291 kts 27°
2026-05-04 23:00 40.08059 -73.81151 10880 ft 290 kts 27°
2026-05-04 23:00 40.09734 -73.79733 10715 ft 280 kts 27°
2026-05-04 23:01 40.11322 -73.78378 10541 ft 266 kts 27°
2026-05-04 23:01 40.12837 -73.77092 10352 ft 253 kts 27°
2026-05-04 23:01 40.14294 -73.75886 10170 ft 243 kts 25°
2026-05-04 23:01 40.15708 -73.74738 9927 ft 236 kts 26°
2026-05-04 23:02 40.17085 -73.73597 9605 ft 233 kts 26°
2026-05-04 23:02 40.18436 -73.72441 9257 ft 232 kts 27°
2026-05-04 23:02 40.19787 -73.71242 8727 ft 240 kts 29°
2026-05-04 23:02 40.21198 -73.69933 8045 ft 255 kts 31°
2026-05-04 23:03 40.22635 -73.68538 7539 ft 259 kts 32°
2026-05-04 23:03 40.24075 -73.67102 7123 ft 261 kts 33°
2026-05-04 23:03 40.25523 -73.65653 6740 ft 262 kts 34°
2026-05-04 23:03 40.26922 -73.64152 6445 ft 258 kts 37°
2026-05-04 23:04 40.28280 -73.62646 6139 ft 254 kts 37°
2026-05-04 23:04 40.29623 -73.61164 5821 ft 252 kts 36°
2026-05-04 23:04 40.30944 -73.59664 5483 ft 250 kts 38°
2026-05-04 23:04 40.32211 -73.58137 5238 ft 244 kts 40°
2026-05-04 23:05 40.33505 -73.56726 4964 ft 240 kts 33°
2026-05-04 23:05 40.34867 -73.55504 4657 ft 236 kts 27°
2026-05-04 23:05 40.36273 -73.54398 4352 ft 235 kts 25°
2026-05-04 23:05 40.37689 -73.53355 4076 ft 231 kts 26°
2026-05-04 23:06 40.39062 -73.52288 3790 ft 229 kts 27°
2026-05-04 23:06 40.40427 -73.51199 3433 ft 229 kts 24°
2026-05-04 23:06 40.41932 -73.50524 2959 ft 230 kts
2026-05-04 23:06 40.43498 -73.50380 2690 ft 222 kts 355°
2026-05-04 23:07 40.45022 -73.50401 2535 ft 211 kts 354°
2026-05-04 23:07 40.46461 -73.50448 2258 ft 209 kts 351°
2026-05-04 23:07 40.47878 -73.50575 2157 ft 195 kts 349°
2026-05-04 23:07 40.49214 -73.50724 1829 ft 196 kts 349°
2026-05-04 23:08 40.50616 -73.50866 1324 ft 208 kts 355°